Regional Weather Roundup
Issued by NWS

Home | Current Version | Previous Version | Text Only | Print | Product List | Glossary On
Versions: 1 2 3 4 5 6 7 8 9 10 11 12 13 14 15 16 17 18 19 20 21 22 23 24 25 26 27 28 29 30 31 32 33 34 35 36 37 38 39 40 41 42 43 44 45 46 47 48 49 50
000
ASUS43 KMKX 271600
RWRWI

WISCONSIN REGIONAL WEATHER ROUNDUP
NATIONAL WEATHER SERVICE MILWAUKEE/SULLIVAN WI
1000 AM CST MON FEB 27 2017

NOTE: "FAIR" INDICATES FEW OR NO CLOUDS BELOW 12,000 FEET WITH NO
SIGNIFICANT WEATHER AND/OR OBSTRUCTIONS TO VISIBILITY.

WIZ001-002-006>008-014>016-023>028-271700-
NORTHWEST WISCONSIN

CITY           SKY/WX    TMP DP  RH WIND       PRES   REMARKS
SUPERIOR ARPT  MOSUNNY   25  17  71 NE3       29.99S
ASHLAND        LGT SNOW  25  20  81 SE3       30.00S
HAYWARD        CLOUDY    27  19  72 S7        29.97R WCI  19
SIREN          SUNNY     30  23  74 S5        29.97R WCI  26
CUMBERLAND     PTSUNNY   32  21  64 S13       29.97R WCI  22
RICE LAKE      SUNNY     31  21  67 S8        30.00R WCI  23
CHETEK         SUNNY     31  21  66 S8        30.00R WCI  23
LADYSMITH      SUNNY     31  22  68 SW9       30.01R WCI  23
EAU CLAIRE     NOT AVBL
MENOMONIE      SUNNY     30  20  68 S5        30.02R WCI  25
NEW RICHMOND   MOSUNNY   33  20  59 SW13      29.98R WCI  23
OSCEOLA        MOSUNNY   32  22  66 S6        30.00S WCI  26
$$

WIZ003>005-009-010-017-018-271700-
NORTH CENTRAL WISCONSIN

CITY           SKY/WX    TMP DP  RH WIND       PRES   REMARKS
MANITOWISH WTR CLOUDY    24  19  83 S10       29.97S WCI  13
ARBOR VITAE    PTSUNNY   27  20  76 S13G18      N/A  WCI  16
WOODRUFF       PTSUNNY   27  20  76 S13G18      N/A  WCI  16
RHINELANDER    PTSUNNY  N/A N/A N/A SW12G20   30.00S
EAGLE RIVER    MOSUNNY   25  15  64 S9G18     29.99S WCI  15
LAND O LAKES   CLOUDY    23  15  71 S3        30.00S
PHILLIPS       CLOUDY    27  20  76 S7        29.97S WCI  19
TOMAHAWK       SUNNY     31  21  66 S3        30.01R
MEDFORD        SUNNY     28  20  71 S10       30.01R WCI  19
MERRILL        NOT AVBL
$$

WIZ029-030-035-036-043>047-271700-
CENTRAL WISCONSIN

CITY           SKY/WX    TMP DP  RH WIND       PRES   REMARKS
WAUSAU         SUNNY     31  22  69 S12       30.04R WCI  22
MOSINEE        MOSUNNY   30  25  80 S13       30.06R WCI  20
MARSHFIELD     SUNNY     31  21  66 S10       30.03R WCI  22
STEVENS POINT  SUNNY     31  21  67 S13       30.07S WCI  21
WAUPACA        SUNNY     34  24  67 S5        30.10S WCI  30
WAUTOMA        SUNNY     35  21  56 S10G17    30.10S WCI  27
WISC RAPIDS    SUNNY     35  21  56 SW6       30.08R WCI  30
CAMP DOUGLAS   NOT AVBL
$$

WIZ011>013-019>022-031-037>040-048>050-271700-
NORTHEAST WISCONSIN

CITY           SKY/WX    TMP DP  RH WIND       PRES   REMARKS
ANTIGO         SUNNY     26  19  75 S10       30.05R WCI  17
SHAWANO        SUNNY     32  22  67 S3        30.10R
OCONTO         SUNNY     30  20  67 S8        30.12S WCI  22
STURGEON BAY   MOSUNNY   34  26  72 S12       30.13R WCI  25
GREEN BAY      SUNNY     32  26  78 S7        30.12R WCI  26
MANITOWOC      NOT AVBL
APPLETON       MOSUNNY   32  21  64 S7        30.09R WCI  26
CLINTONVILLE   SUNNY     32  23  69 S7        30.10R WCI  26
OSHKOSH        SUNNY     33  23  66 S9        30.11S WCI  25
$$

WIZ032>034-041-042-053>061-271700-
SOUTHWEST WISCONSIN

CITY           SKY/WX    TMP DP  RH WIND       PRES   REMARKS
LA CROSSE      SUNNY     34  26  72 S12       30.08R WCI  25
SPARTA         SUNNY     35  25  67 S6        30.07S WCI  30
VIROQUA        SUNNY     33  25  72 S7        30.05S WCI  26
BOSCOBEL       MOSUNNY   37  29  72 CALM      30.10R
PRAIRIE DU CHI SUNNY     34  28  78 CALM      30.09S
PLATTEVILLE    PTSUNNY   34  30  85 SE8       30.09R WCI  27
$$

WIZ056-057-062-063-064-067-068-271700-
SOUTH CENTRAL WISCONSIN

CITY           SKY/WX    TMP DP  RH WIND       PRES   REMARKS
REEDSBURG      SUNNY     36  23  59 S6        30.08S WCI  31
BARABOO/DELLS  SUNNY     35  21  56 S10       30.09R WCI  27
LONE ROCK      NOT AVBL
MINERAL POINT  PTSUNNY   36  30  80 SE7       30.08R WCI  30
MADISON        MOSUNNY   37  24  59 SE14      30.10S WCI  28
MIDDLETON      SUNNY     38  27  63 SE6       30.10S WCI  34
WATERTOWN      SUNNY     36  26  66 SE10      30.11S WCI  29
MONROE         PTSUNNY   34  32  93 SE7       30.09R WCI  28
JANESVILLE     MOSUNNY   39  34  81 S10       30.11S WCI  32
$$

WIZ051-052-058>065-066-070>072-271700-
SOUTHEAST WISCONSIN

CITY           SKY/WX    TMP DP  RH WIND       PRES   REMARKS
MILWAUKEE      MOSUNNY   40  26  57 SE13      30.16R WCI  32
WAUKESHA       SUNNY     36  25  64 SE8       30.15R WCI  29
MILWAUKEE/TIMM SUNNY     37  21  52 SE9       30.15S WCI  31
RACINE         PTSUNNY   39  28  64 SE14      30.17R WCI  31
KENOSHA        CLOUDY    38  28  67 SE9       30.15S WCI  31
FOND DU LAC    SUNNY     35  22  58 S14       30.12R WCI  26
SHEBOYGAN      SUNNY     34  25  69 S12       30.14R WCI  25
WEST BEND      SUNNY     36  27  69 S9        30.14R WCI  29
JUNEAU         SUNNY     34  25  69 SE9       30.12S WCI  27
$$

LSZ147-162-271700-
LAKE SUPERIOR

STATION/POSITION TIME  TEMP    WIND        PRES    WAVE
                       AIR SEA DIR/SP/G            HT/PER
                 (UTC) (F)     (DEG/KT/KT) (MB)    (FT/S)
DEVILS ISLAND    1500   24     200/  6/  8 1017.2R
PORT WING        1530   26      40/  1/  2 1016.3R
SAXON HARBOR     1540   27     190/  4/  7 1015.9S
$$

LMZ867-665-643>646-271700-
LAKE MICHIGAN

STATION/POSITION TIME  TEMP    WIND        PRES    WAVE
                       AIR SEA DIR/SP/G            HT/PER
                 (UTC) (F)     (DEG/KT/KT) (MB)    (FT/S)
CHAMBERS ISLAND  1540   33     140/  5/ 11 1019.6R
NORTHPORT PIER   1540   31     150/  8/ 16 1020.3S
SISTER BAY       1505          150/  9/ 12   N/A
KEWAUNEE LAKESHO 1530   32     180/ 12/ 13 1019.8R
SHEBOYGAN LAKESH 1500   33     170/ 12/ 12 1020.9F
PORT WASHINGTON  1530   38     180/  7/ 11 1022.0R
MILWAUKEE LAKESH 1530   35     150/  7/  8   N/A
KENOSHA   LAKESH 1500   35     140/  2/  3 1021.3
$$

TC  - TEMPERATURE IN CELSIUS
VSB - VISIBILITY IN STATUTE MILES
WCI - WIND CHILL INDEX
HX  - HEAT INDEX




USA.gov is the U.S. government's official web portal to all federal, state and local government web resources and services.